Time,TemperatureF,DewpointF,PressureIn,WindDirection,WindDirectionDegrees,WindSpeedMPH,WindSpeedGustMPH,Humidity,HourlyPrecipIn,Conditions,Clouds,dailyrainin,SoftwareType,DateUTC
2013-04-13 00:02:00,52.0,51.0,29.84,WSW,250,0.0,0.0,95,0.00,,,0.00,,2013-04-13 07:02:00,
2013-04-13 00:12:00,52.0,51.0,29.84,WSW,250,0.0,0.0,95,0.00,,,0.00,,2013-04-13 07:12:00,
2013-04-13 00:22:00,51.0,49.0,29.84,WSW,250,0.0,0.0,94,0.00,,,0.00,,2013-04-13 07:22:00,
2013-04-13 00:32:00,51.0,49.0,29.85,WSW,250,0.0,1.0,94,0.00,,,0.00,,2013-04-13 07:32:00,
2013-04-13 00:43:00,51.0,49.0,29.85,WSW,250,0.0,1.0,94,0.00,,,0.00,,2013-04-13 07:43:00,
2013-04-13 00:54:00,51.0,50.0,29.85,WSW,250,0.0,0.0,95,0.00,,,0.00,,2013-04-13 07:54:00,
2013-04-13 01:02:00,50.0,49.0,29.86,WSW,250,0.0,0.0,95,0.00,,,0.00,,2013-04-13 08:02:00,
2013-04-13 01:12:00,50.0,49.0,29.86,WSW,250,0.0,0.0,95,0.00,,,0.00,,2013-04-13 08:12:00,
2013-04-13 01:23:00,49.0,48.0,29.86,WSW,250,0.0,3.0,95,0.00,,,0.00,,2013-04-13 08:23:00,
2013-04-13 01:32:00,49.0,48.0,29.86,WSW,250,0.0,1.0,96,0.00,,,0.00,,2013-04-13 08:32:00,
2013-04-13 01:43:00,49.0,48.0,29.86,WSW,250,0.0,1.0,96,0.00,,,0.00,,2013-04-13 08:43:00,
2013-04-13 01:53:00,49.0,48.0,29.85,WSW,250,0.0,0.0,97,0.00,,,0.00,,2013-04-13 08:53:00,
2013-04-13 02:03:00,48.0,47.0,29.86,WSW,250,0.0,0.0,97,0.00,,,0.00,,2013-04-13 09:03:00,
2013-04-13 02:12:00,48.0,47.0,29.86,WSW,250,0.0,0.0,97,0.00,,,0.00,,2013-04-13 09:12:00,
2013-04-13 02:22:00,48.0,47.0,29.86,WSW,250,0.0,0.0,98,0.00,,,0.00,,2013-04-13 09:22:00,
2013-04-13 02:33:00,48.0,47.0,29.86,WSW,250,0.0,0.0,98,0.00,,,0.00,,2013-04-13 09:33:00,
2013-04-13 02:43:00,48.0,47.0,29.86,WSW,250,0.0,0.0,98,0.00,,,0.00,,2013-04-13 09:43:00,
2013-04-13 02:54:00,48.0,47.0,29.86,WSW,250,0.0,0.0,98,0.00,,,0.00,,2013-04-13 09:54:00,
2013-04-13 03:03:00,48.0,47.0,29.86,WSW,250,0.0,0.0,98,0.00,,,0.00,,2013-04-13 10:03:00,
2013-04-13 03:13:00,49.0,48.0,29.86,WSW,250,0.0,2.0,98,0.00,,,0.00,,2013-04-13 10:13:00,
2013-04-13 03:23:00,49.0,48.0,29.86,WSW,250,0.0,2.0,98,0.00,,,0.00,,2013-04-13 10:23:00,
2013-04-13 03:34:00,49.0,49.0,29.85,WSW,250,0.0,0.0,99,0.00,,,0.00,,2013-04-13 10:34:00,
2013-04-13 03:44:00,49.0,49.0,29.85,WSW,250,0.0,0.0,99,0.00,,,0.00,,2013-04-13 10:44:00,
2013-04-13 03:54:00,49.0,49.0,29.85,WSW,250,0.0,0.0,99,0.00,,,0.00,,2013-04-13 10:54:00,
2013-04-13 04:03:00,49.0,49.0,29.85,WSW,250,0.0,0.0,99,0.00,,,0.00,,2013-04-13 11:03:00,
2013-04-13 04:11:00,49.0,49.0,29.85,WSW,250,0.0,0.0,99,0.00,,,0.00,,2013-04-13 11:11:00,
2013-04-13 04:22:00,49.0,49.0,29.85,WSW,250,1.0,2.0,99,0.00,,,0.00,,2013-04-13 11:22:00,
2013-04-13 04:32:00,49.0,49.0,29.85,WSW,250,0.0,0.0,99,0.00,,,0.00,,2013-04-13 11:32:00,
2013-04-13 04:43:00,49.0,49.0,29.85,WSW,250,0.0,0.0,99,0.00,,,0.00,,2013-04-13 11:43:00,
2013-04-13 04:53:00,49.0,49.0,29.85,WSW,250,0.0,0.0,99,0.00,,,0.00,,2013-04-13 11:53:00,
2013-04-13 05:13:00,49.0,49.0,29.85,WSW,250,0.0,0.0,99,0.00,,,0.00,,2013-04-13 12:13:00,
2013-04-13 05:22:00,49.0,49.0,29.85,WSW,251,0.0,0.0,99,0.00,,,0.00,,2013-04-13 12:22:00,
2013-04-13 05:32:00,49.0,49.0,29.85,WSW,251,0.0,0.0,99,0.00,,,0.00,,2013-04-13 12:32:00,
2013-04-13 05:44:00,49.0,49.0,29.85,WSW,251,0.0,0.0,99,0.00,,,0.00,,2013-04-13 12:44:00,
2013-04-13 05:54:00,49.0,49.0,29.85,WSW,251,0.0,0.0,99,0.00,,,0.00,,2013-04-13 12:54:00,
2013-04-13 06:03:00,49.0,49.0,29.85,WSW,251,0.0,0.0,99,0.00,,,0.00,,2013-04-13 13:03:00,
2013-04-13 06:32:00,49.0,49.0,29.85,WSW,251,0.0,0.0,99,0.00,,,0.00,,2013-04-13 13:32:00,
2013-04-13 06:43:00,49.0,49.0,29.85,WSW,251,0.0,0.0,99,0.00,,,0.00,,2013-04-13 13:43:00,
2013-04-13 06:54:00,49.0,49.0,29.84,WSW,251,0.0,1.0,99,0.00,,,0.00,,2013-04-13 13:54:00,
2013-04-13 07:03:00,48.0,48.0,29.85,WSW,250,0.0,0.0,99,0.00,,,0.00,,2013-04-13 14:03:00,
2013-04-13 07:12:00,48.0,48.0,29.85,WSW,250,0.0,0.0,99,0.00,,,0.00,,2013-04-13 14:12:00,
2013-04-13 07:33:00,48.0,48.0,29.85,WSW,251,0.0,0.0,100,0.00,,,0.00,,2013-04-13 14:33:00,
2013-04-13 07:43:00,48.0,48.0,29.85,WSW,251,0.0,0.0,100,0.00,,,0.00,,2013-04-13 14:43:00,
2013-04-13 07:55:00,48.0,48.0,29.86,WSW,251,0.0,0.0,100,0.00,,,0.00,,2013-04-13 14:55:00,
2013-04-13 08:12:00,49.0,49.0,29.86,WSW,250,0.0,1.0,100,0.00,,,0.00,,2013-04-13 15:12:00,
2013-04-13 08:33:00,49.0,49.0,29.87,WSW,251,0.0,0.0,100,0.00,,,0.00,,2013-04-13 15:33:00,
2013-04-13 08:43:00,49.0,49.0,29.87,WSW,251,0.0,0.0,100,0.00,,,0.00,,2013-04-13 15:43:00,
2013-04-13 08:55:00,50.0,50.0,29.88,WSW,250,0.0,0.0,100,0.00,,,0.00,,2013-04-13 15:55:00,
2013-04-13 09:03:00,50.0,50.0,29.88,West,259,0.0,1.0,100,0.00,,,0.00,,2013-04-13 16:03:00,
2013-04-13 09:13:00,50.0,50.0,29.88,West,259,0.0,1.0,100,0.00,,,0.00,,2013-04-13 16:13:00,
2013-04-13 09:22:00,50.0,50.0,29.88,NE,35,2.0,4.0,100,0.00,,,0.00,,2013-04-13 16:22:00,
2013-04-13 09:33:00,50.0,50.0,29.88,NE,35,0.0,3.0,100,0.00,,,0.00,,2013-04-13 16:33:00,
2013-04-13 09:54:00,52.0,52.0,29.88,NNE,32,0.0,2.0,99,0.00,,,0.00,,2013-04-13 16:54:00,
2013-04-13 10:03:00,52.0,51.0,29.88,NNE,32,0.0,0.0,97,0.00,,,0.00,,2013-04-13 17:03:00,
2013-04-13 10:14:00,52.0,51.0,29.88,NNE,32,0.0,0.0,97,0.00,,,0.00,,2013-04-13 17:14:00,
2013-04-13 10:23:00,53.0,52.0,29.89,WNW,288,0.0,5.0,95,0.00,,,0.00,,2013-04-13 17:23:00,
2013-04-13 10:33:00,53.0,52.0,29.89,WNW,285,0.0,3.0,95,0.00,,,0.00,,2013-04-13 17:33:00,
2013-04-13 10:42:00,53.0,52.0,29.89,WNW,285,0.0,3.0,95,0.00,,,0.00,,2013-04-13 17:42:00,
2013-04-13 11:01:00,54.0,52.0,29.88,WNW,299,0.0,2.0,93,0.00,,,0.00,,2013-04-13 18:01:00,
2013-04-13 11:13:00,54.0,52.0,29.89,WNW,299,0.0,2.0,93,0.00,,,0.00,,2013-04-13 18:13:00,
2013-04-13 11:23:00,54.0,52.0,29.89,WNW,292,3.0,4.0,93,0.00,,,0.00,,2013-04-13 18:23:00,
2013-04-13 11:32:00,54.0,52.0,29.89,WNW,288,0.0,3.0,93,0.00,,,0.00,,2013-04-13 18:32:00,
2013-04-13 11:42:00,54.0,52.0,29.89,WNW,288,0.0,3.0,93,0.00,,,0.00,,2013-04-13 18:42:00,
2013-04-13 11:53:00,55.0,52.0,29.89,West,277,0.0,5.0,91,0.00,,,0.00,,2013-04-13 18:53:00,
2013-04-13 12:02:00,55.0,52.0,29.89,West,271,1.0,6.0,91,0.00,,,0.00,,2013-04-13 19:02:00,
2013-04-13 12:12:00,55.0,52.0,29.89,West,271,1.0,6.0,91,0.00,,,0.00,,2013-04-13 19:12:00,
2013-04-13 12:22:00,56.0,53.0,29.89,West,269,2.0,4.0,90,0.00,,,0.00,,2013-04-13 19:22:00,
2013-04-13 12:32:00,56.0,52.0,29.88,West,269,0.0,2.0,88,0.00,,,0.00,,2013-04-13 19:32:00,
2013-04-13 12:42:00,56.0,52.0,29.88,West,269,0.0,2.0,88,0.00,,,0.00,,2013-04-13 19:42:00,
2013-04-13 12:53:00,57.0,53.0,29.88,West,267,1.0,4.0,86,0.00,,,0.00,,2013-04-13 19:53:00,
2013-04-13 13:01:00,57.0,53.0,29.88,West,267,0.0,1.0,86,0.00,,,0.00,,2013-04-13 20:01:00,
2013-04-13 13:11:00,57.0,53.0,29.88,West,267,0.0,1.0,86,0.00,,,0.00,,2013-04-13 20:11:00,
2013-04-13 13:22:00,58.0,54.0,29.88,West,261,1.0,6.0,85,0.00,,,0.00,,2013-04-13 20:22:00,
2013-04-13 13:31:00,58.0,54.0,29.88,West,263,1.0,5.0,85,0.00,,,0.00,,2013-04-13 20:31:00,
2013-04-13 13:42:00,58.0,54.0,29.88,West,263,1.0,5.0,85,0.00,,,0.00,,2013-04-13 20:42:00,
2013-04-13 13:52:00,59.0,53.0,29.87,SSW,205,0.0,5.0,81,0.00,,,0.00,,2013-04-13 20:52:00,
2013-04-13 14:01:00,59.0,53.0,29.86,SW,214,0.0,5.0,81,0.00,,,0.00,,2013-04-13 21:01:00,
2013-04-13 14:12:00,59.0,53.0,29.86,SW,214,0.0,5.0,81,0.00,,,0.00,,2013-04-13 21:12:00,
2013-04-13 14:22:00,59.0,53.0,29.86,SSW,207,0.0,6.0,81,0.00,,,0.00,,2013-04-13 21:22:00,
2013-04-13 14:32:00,60.0,54.0,29.86,SSW,209,1.0,3.0,80,0.00,,,0.00,,2013-04-13 21:32:00,
2013-04-13 14:42:00,60.0,54.0,29.86,SSW,209,1.0,3.0,80,0.00,,,0.00,,2013-04-13 21:42:00,
2013-04-13 14:52:00,60.0,53.0,29.86,SW,218,1.0,6.0,79,0.00,,,0.00,,2013-04-13 21:52:00,
2013-04-13 15:02:00,60.0,54.0,29.85,SSW,210,2.0,6.0,80,0.00,,,0.00,,2013-04-13 22:02:00,
2013-04-13 15:12:00,60.0,54.0,29.85,SSW,210,2.0,6.0,80,0.00,,,0.00,,2013-04-13 22:12:00,
2013-04-13 15:22:00,62.0,55.0,29.84,SW,214,2.0,6.0,78,0.00,,,0.00,,2013-04-13 22:22:00,
2013-04-13 15:32:00,61.0,54.0,29.84,SSW,204,1.0,6.0,78,0.00,,,0.00,,2013-04-13 22:32:00,
2013-04-13 15:42:00,61.0,54.0,29.84,SSW,204,1.0,6.0,78,0.00,,,0.00,,2013-04-13 22:42:00,
2013-04-13 15:52:00,62.0,54.0,29.84,WSW,237,2.0,7.0,76,0.00,,,0.00,,2013-04-13 22:52:00,
2013-04-13 16:01:00,61.0,54.0,29.84,SSW,194,3.0,7.0,77,0.00,,,0.00,,2013-04-13 23:01:00,
2013-04-13 16:12:00,61.0,54.0,29.84,SSW,194,3.0,7.0,77,0.00,,,0.00,,2013-04-13 23:12:00,
2013-04-13 16:22:00,60.0,53.0,29.83,WSW,246,2.0,7.0,79,0.00,,,0.00,,2013-04-13 23:22:00,
2013-04-13 16:32:00,60.0,53.0,29.83,WSW,240,1.0,7.0,79,0.00,,,0.00,,2013-04-13 23:32:00,
2013-04-13 16:41:00,60.0,53.0,29.83,WSW,240,1.0,7.0,79,0.00,,,0.00,,2013-04-13 23:41:00,
2013-04-13 16:52:00,59.0,53.0,29.83,SW,232,3.0,10.0,80,0.00,,,0.00,,2013-04-13 23:52:00,
2013-04-13 17:01:00,60.0,54.0,29.82,SW,215,3.0,6.0,80,0.00,,,0.00,,2013-04-14 00:01:00,
2013-04-13 17:11:00,60.0,54.0,29.82,SW,215,3.0,6.0,80,0.00,,,0.00,,2013-04-14 00:11:00,
2013-04-13 17:22:00,61.0,54.0,29.82,SW,232,3.0,7.0,77,0.00,,,0.00,,2013-04-14 00:22:00,
2013-04-13 17:31:00,60.0,53.0,29.82,SW,220,1.0,7.0,79,0.00,,,0.00,,2013-04-14 00:31:00,
2013-04-13 17:41:00,60.0,53.0,29.82,SW,220,1.0,7.0,79,0.00,,,0.00,,2013-04-14 00:41:00,
2013-04-13 17:52:00,60.0,53.0,29.82,South,183,4.0,9.0,79,0.00,,,0.00,,2013-04-14 00:52:00,
2013-04-13 18:02:00,61.0,54.0,29.81,SW,223,2.0,3.0,79,0.00,,,0.00,,2013-04-14 01:02:00,
2013-04-13 18:11:00,61.0,54.0,29.81,SW,223,2.0,3.0,79,0.00,,,0.00,,2013-04-14 01:11:00,
2013-04-13 18:22:00,59.0,53.0,29.82,SSW,202,2.0,4.0,80,0.00,,,0.00,,2013-04-14 01:22:00,
2013-04-13 18:32:00,59.0,54.0,29.82,SSW,203,0.0,5.0,82,0.00,,,0.00,,2013-04-14 01:32:00,
2013-04-13 18:42:00,59.0,54.0,29.82,SSW,203,0.0,5.0,82,0.00,,,0.00,,2013-04-14 01:42:00,
2013-04-13 18:52:00,58.0,53.0,29.82,SSW,205,0.0,6.0,83,0.00,,,0.00,,2013-04-14 01:52:00,
2013-04-13 19:01:00,57.0,52.0,29.82,SW,215,2.0,4.0,83,0.00,,,0.00,,2013-04-14 02:01:00,
2013-04-13 19:11:00,57.0,52.0,29.82,SW,215,2.0,4.0,83,0.00,,,0.00,,2013-04-14 02:11:00,
2013-04-13 19:21:00,57.0,53.0,29.82,SSW,200,1.0,6.0,85,0.00,,,0.00,,2013-04-14 02:21:00,
2013-04-13 19:31:00,56.0,52.0,29.82,SW,221,1.0,4.0,85,0.00,,,0.00,,2013-04-14 02:31:00,
2013-04-13 19:42:00,56.0,52.0,29.82,SW,221,1.0,4.0,85,0.00,,,0.00,,2013-04-14 02:42:00,
2013-04-13 19:53:00,56.0,52.0,29.83,SW,221,0.0,4.0,86,0.00,,,0.00,,2013-04-14 02:53:00,
2013-04-13 20:02:00,56.0,52.0,29.83,SW,221,2.0,5.0,87,0.00,,,0.00,,2013-04-14 03:02:00,
2013-04-13 20:12:00,56.0,52.0,29.83,SW,221,2.0,5.0,87,0.00,,,0.00,,2013-04-14 03:12:00,
2013-04-13 20:21:00,55.0,51.0,29.83,SW,222,0.0,3.0,87,0.00,,,0.00,,2013-04-14 03:21:00,
2013-04-13 20:32:00,55.0,52.0,29.83,SW,222,1.0,5.0,88,0.00,,,0.00,,2013-04-14 03:32:00,
2013-04-13 20:42:00,55.0,52.0,29.83,SW,222,1.0,5.0,88,0.00,,,0.00,,2013-04-14 03:42:00,
2013-04-13 20:53:00,55.0,52.0,29.84,SW,221,0.0,4.0,89,0.00,,,0.00,,2013-04-14 03:53:00,
2013-04-13 21:02:00,55.0,52.0,29.84,SW,221,0.0,3.0,89,0.00,,,0.00,,2013-04-14 04:02:00,
2013-04-13 21:12:00,55.0,52.0,29.84,SW,221,0.0,3.0,89,0.00,,,0.00,,2013-04-14 04:12:00,
2013-04-13 21:22:00,55.0,52.0,29.85,SW,221,0.0,0.0,89,0.00,,,0.00,,2013-04-14 04:22:00,
2013-04-13 21:32:00,55.0,52.0,29.85,SW,221,0.0,0.0,89,0.00,,,0.00,,2013-04-14 04:32:00,
2013-04-13 21:42:00,55.0,52.0,29.85,SW,221,0.0,0.0,89,0.00,,,0.00,,2013-04-14 04:42:00,
2013-04-13 21:52:00,55.0,52.0,29.85,SW,222,0.0,0.0,90,0.00,,,0.00,,2013-04-14 04:52:00,
2013-04-13 22:01:00,54.0,51.0,29.85,SW,222,0.0,0.0,90,0.00,,,0.00,,2013-04-14 05:01:00,
2013-04-13 22:11:00,54.0,51.0,29.85,SW,222,0.0,0.0,90,0.00,,,0.00,,2013-04-14 05:11:00,
2013-04-13 22:22:00,54.0,51.0,29.86,SW,222,0.0,0.0,91,0.00,,,0.00,,2013-04-14 05:22:00,
2013-04-13 22:32:00,54.0,51.0,29.86,SW,222,0.0,0.0,91,0.00,,,0.00,,2013-04-14 05:32:00,
2013-04-13 22:42:00,54.0,51.0,29.86,SW,222,0.0,0.0,91,0.00,,,0.00,,2013-04-14 05:42:00,
2013-04-13 22:52:00,54.0,52.0,29.86,SW,222,0.0,0.0,92,0.00,,,0.00,,2013-04-14 05:52:00,
2013-04-13 23:01:00,54.0,52.0,29.86,SW,222,0.0,1.0,92,0.00,,,0.00,,2013-04-14 06:01:00,
2013-04-13 23:11:00,54.0,52.0,29.86,SW,222,0.0,1.0,92,0.00,,,0.00,,2013-04-14 06:11:00,
2013-04-13 23:21:00,54.0,52.0,29.85,SW,222,0.0,1.0,93,0.00,,,0.00,,2013-04-14 06:21:00,
2013-04-13 23:32:00,53.0,51.0,29.85,SW,223,0.0,0.0,94,0.00,,,0.00,,2013-04-14 06:32:00,
2013-04-13 23:42:00,53.0,51.0,29.85,SW,223,0.0,0.0,94,0.00,,,0.00,,2013-04-14 06:42:00,
2013-04-13 23:51:00,53.0,52.0,29.85,SW,222,0.0,0.0,95,0.00,,,0.00,,2013-04-14 06:51:00,